Wind_Speed
9 8 7 2 2 1 2 4 2 7 3 2 7 3 5 6 1 3 20 25 22 21 17 14 14 13 12 12 13 14 15 15 14 12 11 8 8 7 7 7 6 6 7 7 5 6 7 11 13
8 7 2 1 0 5 3 1 6 8 14 18 14 9 5 4 4 14 25 23 24 21 18 15 14 12 11 11 13 15 15 14 12 10 9 10 8 8 8 7 7 8 8 7 7 8 11 14 14
6 4 1 2 3 3 4 4 18 19 8 5 6 9 4 4 11 20 21 23 25 22 19 16 15 13 10 8 9 12 13 12 11 10 9 9 9 9 8 7 8 9 8 8 9 11 13 13 13
3 1 3 2 4 2 2 12 13 14 10 8 13 8 6 7 12 11 22 24 25 23 20 17 15 12 10 8 7 8 9 9 9 8 8 8 8 8 9 7 8 10 10 10 11 12 13 12 11
2 1 1 1 3 3 2 15 12 4 8 6 5 5 5 4 6 11 19 25 24 24 21 17 15 12 10 7 7 7 6 6 6 6 6 6 7 7 8 8 6 8 9 11 12 11 10 9 8
1 2 2 5 4 4 2 9 8 7 12 13 12 6 4 8 13 19 22 22 22 23 21 18 15 12 10 8 6 6 6 6 6 5 4 4 6 6 6 6 7 7 7 8 8 9 8 6 4
2 2 2 3 6 5 4 8 14 15 16 9 12 5 6 10 20 20 19 20 21 21 20 18 15 12 10 8 6 5 5 5 5 5 5 5 4 5 5 5 4 4 6 6 6 5 4 3 2
3 2 4 3 7 5 6 4 11 12 9 14 8 6 9 19 21 20 19 19 20 20 19 17 15 13 10 8 6 5 4 4 4 3 3 3 3 3 4 3 4 3 2 3 5 6 6 6 6
3 1 4 4 8 6 8 8 6 9 13 9 5 10 18 23 22 22 20 19 19 18 17 16 15 13 11 9 7 5 4 2 2 2 2 2 2 1 1 1 2 2 4 5 5 5 6 8 9
3 2 6 3 5 5 5 7 7 7 14 13 19 19 20 22 21 20 18 18 17 17 17 16 15 13 12 10 7 5 3 2 1 1 1 0 0 1 1 1 2 2 3 4 5 7 8 10 11
5 4 3 2 6 11 8 6 5 18 9 5 16 18 22 22 20 19 17 14 12 11 11 11 11 11 10 8 6 5 4 3 3 2 2 1 1 2 2 2 3 3 4 5 7 8 9 11 12
4 2 4 5 9 10 6 8 10 12 8 13 16 20 22 22 20 18 17 15 13 12 13 11 10 10 9 8 7 5 4 3 3 3 2 2 2 2 3 3 3 3 4 5 6 8 9 11 12
3 4 7 11 17 18 21 16 13 16 13 16 18 19 20 19 17 16 16 15 13 12 12 14 13 12 10 9 8 9 6 3 2 1 0 0 2 4 4 3 3 4 6 8 8 10 11 12 14
4 14 15 11 14 14 18 10 5 6 13 17 19 18 17 16 15 14 14 14 15 14 13 14 15 14 14 13 12 12 8 7 6 5 5 5 4 5 6 7 8 10 11 11 12 13 14 15 17
16 9 11 7 5 9 17 8 10 11 14 17 18 17 17 16 14 13 12 13 15 15 15 16 17 17 17 17 16 16 15 11 11 10 12 10 11 11 13 12 12 13 16 16 18 19 19 22 23
4 5 8 5 6 3 3 5 7 11 15 16 16 17 18 17 14 13 11 10 12 14 16 15 16 16 16 15 16 17 14 14 13 12 11 10 9 10 13 15 15 14 17 19 21 22 25 25 26
6 11 9 8 6 6 1 8 12 14 15 17 16 17 18 19 17 15 13 11 10 12 14 15 16 17 15 16 16 14 11 10 11 11 7 7 9 10 12 13 15 16 18 20 18 21 21 23 26
12 5 6 7 7 4 5 10 16 16 16 16 16 16 16 18 19 17 14 12 11 12 14 15 15 15 14 15 13 11 7 6 5 3 5 3 4 5 6 7 8 10 11 11 13 13 15 17 21
9 9 13 3 4 4 5 16 17 18 16 16 15 16 16 19 19 17 16 14 12 12 13 14 14 14 12 12 13 12 11 9 8 7 3 2 2 3 4 5 6 8 9 11 13 13 15 16 19
6 13 18 6 3 4 12 15 13 16 17 19 20 17 17 20 19 19 17 16 15 14 13 13 13 13 12 11 12 12 11 10 8 7 5 3 3 4 6 7 8 9 10 11 12 14 14 15 19
12 19 15 13 9 8 17 7 12 13 14 16 15 15 15 20 22 21 19 17 16 16 16 15 15 14 13 12 10 10 9 9 8 6 5 6 7 7 7 8 9 10 11 13 15 16 17 18 17
18 8 12 19 15 9 10 8 15 17 17 19 20 21 20 21 21 21 20 18 16 16 15 14 15 15 14 12 10 10 9 9 8 7 8 7 8 9 11 12 13 14 14 14 15 16 15 15 15
11 10 16 13 8 5 9 6 4 19 17 17 26 25 23 23 24 23 20 18 16 14 14 14 14 14 14 13 11 11 10 11 11 11 10 11 11 11 12 13 15 16 17 17 17 17 17 18 16
15 15 14 7 4 5 15 12 13 15 25 25 26 28 28 26 26 24 22 19 17 15 13 13 13 14 14 12 12 11 11 12 11 11 10 10 11 12 13 14 14 15 15 15 15 16 17 17 16
14 17 5 6 6 15 16 10 16 17 24 27 29 35 32 30 29 29 26 23 20 17 15 14 12 14 13 11 12 11 11 11 11 11 12 11 12 14 15 16 16 17 17 17 17 17 17 17 18
24 20 7 14 14 15 6 11 9 17 28 31 32 34 32 31 32 31 28 24 21 18 16 14 12 12 11 10 10 10 10 10 10 11 11 12 14 15 16 16 17 17 18 18 18 17 18 17 17
15 12 16 6 1 7 10 15 6 4 14 24 32 38 38 35 35 33 30 26 23 19 16 15 13 12 11 10 9 9 9 9 11 11 11 13 13 14 14 15 16 17 18 18 19 19 19 19 19
17 19 10 3 10 16 14 21 12 15 19 22 26 37 40 41 35 34 33 30 24 20 18 16 13 12 11 9 8 8 9 10 10 11 11 12 13 14 15 16 17 19 20 22 23 23 23 22 22
6 13 8 7 5 13 16 14 10 17 22 27 33 43 47 47 42 39 37 32 27 23 19 17 15 13 11 9 8 7 8 9 9 10 12 13 14 15 15 17 19 20 21 23 23 23 23 23 23
7 13 21 10 19 12 10 14 2 17 24 35 40 45 46 48 47 41 40 37 32 27 22 19 16 13 11 9 7 6 7 8 8 10 12 13 13 14 16 17 18 20 22 23 24 25 26 26 27
Wind_Direction
334 335 343 17 220 101 94 97 134 125 116 107 118 178 132 59 41 101 151 157 164 162 153 145 135 122 116 117 121 123 123 123 120 116 115 112 109 100 99 100 101 104 133 136 122 103 98 104 105
336 339 354 8 131 127 112 53 149 106 121 105 90 92 80 80 89 138 149 158 165 162 156 146 136 125 114 116 123 125 126 124 119 110 102 103 95 90 106 107 92 101 118 126 112 108 112 110 106
335 337 279 87 107 130 120 116 132 121 132 124 107 67 49 49 124 141 160 160 164 164 158 150 140 132 122 115 119 125 129 127 122 112 100 90 96 96 98 102 102 109 104 103 108 111 114 110 104
329 255 53 233 138 109 165 150 139 132 89 79 107 75 75 106 137 151 159 162 165 165 160 154 146 140 132 124 121 123 129 129 123 114 103 90 89 99 99 101 104 119 119 116 114 112 112 106 98
302 66 108 146 129 123 224 153 149 113 102 93 118 108 76 116 160 165 162 162 168 166 162 158 152 149 142 132 122 125 128 130 127 119 107 97 90 92 97 100 94 115 121 127 128 124 120 115 108
232 91 152 191 161 127 116 154 132 104 117 119 98 104 87 133 141 148 156 163 169 168 164 162 159 158 153 146 138 131 133 136 134 125 105 92 93 90 92 102 113 117 125 132 140 143 143 142 129
143 124 201 175 154 146 145 137 132 127 119 82 123 91 119 131 144 148 156 163 166 169 169 168 166 166 164 160 156 148 145 140 139 135 128 114 84 74 93 101 105 125 137 146 157 167 179 192 219
152 98 146 190 178 148 154 111 117 116 90 118 112 141 151 152 150 152 156 160 165 170 174 174 174 176 175 175 174 172 162 152 142 129 114 95 94 101 94 98 122 133 160 178 185 198 218 236 251
152 121 192 193 175 140 146 138 81 80 99 77 102 136 153 154 156 157 158 161 164 170 179 181 184 185 184 186 190 190 185 162 132 89 60 55 49 37 52 115 145 175 191 204 227 250 260 264 267
166 180 210 175 160 146 98 108 105 97 101 85 94 119 143 154 158 158 158 161 167 174 182 187 193 194 193 193 193 193 187 176 146 135 113 58 357 325 326 311 299 276 253 252 257 258 258 263 269
184 200 182 140 143 134 110 72 62 119 71 67 133 133 149 156 155 157 156 158 163 172 182 188 192 195 193 189 185 183 183 185 186 199 219 242 277 294 287 295 301 292 283 281 277 273 274 274 276
209 166 142 130 133 114 98 96 75 63 98 124 133 141 149 154 152 156 163 167 171 177 183 180 182 183 178 179 180 183 190 195 209 218 240 249 264 269 275 282 283 282 282 282 288 292 291 289 286
216 120 67 114 113 93 105 84 101 87 106 129 135 139 148 150 153 160 168 175 176 175 178 185 181 177 177 182 188 185 191 179 142 142 171 332 15 13 3 340 321 302 285 279 277 281 282 283 283
123 106 117 103 103 127 111 104 82 92 120 123 133 131 138 146 151 159 168 180 183 182 178 179 183 183 182 187 192 192 205 223 220 234 248 282 289 287 291 282 299 307 309 302 297 291 289 291 293
136 103 110 122 121 123 115 47 92 130 129 115 114 121 127 130 140 153 163 179 185 185 180 179 182 182 187 195 192 197 211 221 241 240 234 252 257 263 254 257 252 273 279 285 287 283 287 292 292
142 127 156 161 158 127 240 144 148 143 135 115 113 115 118 120 125 129 141 161 174 185 185 189 192 198 196 198 199 209 212 222 228 240 247 256 257 262 266 268 274 277 279 284 276 277 279 278 279
193 191 171 164 194 137 196 140 172 155 140 128 123 119 117 114 115 117 124 137 154 173 182 187 192 203 218 205 210 210 227 234 244 232 253 247 251 265 267 266 274 281 284 286 284 286 289 290 284
170 148 152 159 171 105 104 134 154 160 149 140 136 130 124 120 115 117 119 125 136 154 168 172 179 180 182 172 173 164 175 172 214 205 214 237 267 278 282 292 296 293 294 299 300 299 300 296 295
216 157 164 108 131 112 157 147 162 161 157 151 150 145 134 125 123 122 121 121 128 135 151 159 163 158 169 178 174 164 162 156 164 141 133 80 21 351 338 337 337 331 329 328 323 323 324 317 315
275 183 178 116 62 97 149 147 160 169 173 171 165 159 148 138 137 134 132 131 133 130 135 145 159 159 164 160 157 149 143 139 127 104 88 65 43 15 359 352 348 348 346 338 335 332 334 333 333
226 210 176 172 113 83 131 146 177 189 183 180 179 170 163 154 148 142 139 138 133 131 132 137 138 140 143 146 146 141 136 123 114 102 73 55 42 32 21 14 8 2 356 353 350 348 347 347 348
221 221 179 148 169 188 218 207 206 191 193 191 185 185 176 167 157 152 148 142 141 137 134 134 135 138 137 136 140 141 139 131 106 88 69 56 42 32 28 26 25 22 18 12 8 2 356 352 348
228 160 169 166 163 166 221 239 137 187 203 196 196 189 182 176 167 160 153 149 141 136 136 137 138 137 133 136 137 134 124 107 96 84 69 56 44 34 29 24 20 15 12 9 4 1 360 358 356
131 112 113 115 126 198 203 228 198 193 200 205 192 188 184 179 172 164 158 153 148 143 139 137 136 133 129 129 120 112 103 99 97 87 74 59 46 37 32 28 25 22 17 13 8 5 2 0 358
182 151 142 171 195 224 180 199 235 200 200 197 186 185 182 180 175 170 166 159 155 150 147 143 142 132 126 123 115 109 103 98 86 75 64 55 46 38 33 27 25 24 22 20 18 14 11 10 6
189 186 180 205 207 214 115 232 243 215 214 202 185 179 177 181 180 178 171 164 158 154 152 151 151 142 131 120 109 99 92 83 76 68 58 48 43 37 31 25 24 24 24 24 22 17 13 9 4
188 208 198 210 293 208 207 233 248 181 190 178 173 173 182 181 182 180 173 169 163 158 154 156 155 149 140 132 119 106 94 85 74 64 54 50 44 40 34 30 29 28 29 28 23 21 16 10 4
191 197 183 184 195 217 214 228 228 169 178 176 174 181 180 182 182 181 176 172 167 162 156 154 156 153 145 136 123 105 91 81 72 63 58 52 47 42 36 33 31 29 28 25 24 20 15 10 4
169 195 214 227 206 222 235 242 189 193 181 184 189 183 180 180 183 181 177 174 171 167 163 160 161 159 151 142 124 101 91 80 70 63 58 52 45 40 37 35 31 31 27 27 24 21 17 13 9
227 210 196 195 207 227 243 235 339 213 188 185 189 185 182 181 181 180 178 175 175 172 169 166 164 161 157 148 129 111 94 81 70 63 57 51 46 42 37 32 32 32 30 27 25 22 18 15 13
Height
1509 1508 1506 1506 1510 1505 1515 1513 1510 1514 1516 1519 1521 1523 1524 1529 1528 1534 1534 1539 1543 1546 1548 1550 1552 1554 1555 1556 1557 1558 1559 1560 1561 1561 1562 1562 1562 1563 1563 1563 1564 1564 1565 1566 1566 1566 1567 1567 1567
1508 1508 1506 1505 1507 1510 1516 1511 1513 1513 1519 1520 1523 1525 1526 1530 1531 1532 1536 1539 1544 1548 1550 1552 1553 1555 1557 1558 1559 1560 1561 1562 1563 1563 1563 1564 1564 1564 1564 1565 1565 1565 1566 1567 1568 1568 1569 1569 1570
1508 1507 1507 1506 1512 1511 1513 1512 1511 1515 1518 1520 1524 1526 1529 1533 1533 1535 1537 1541 1544 1549 1552 1554 1555 1557 1559 1560 1560 1561 1563 1563 1564 1565 1565 1565 1566 1566 1566 1566 1566 1566 1567 1568 1569 1570 1571 1572 1573
1508 1508 1508 1505 1509 1514 1511 1510 1514 1515 1518 1520 1524 1529 1533 1535 1537 1538 1540 1543 1546 1550 1553 1556 1557 1559 1561 1562 1562 1563 1564 1564 1565 1566 1567 1567 1567 1567 1568 1568 1567 1567 1568 1569 1570 1571 1573 1574 1576
1507 1506 1507 1509 1511 1512 1512 1511 1513 1514 1518 1523 1524 1532 1535 1536 1537 1539 1541 1545 1549 1551 1554 1557 1559 1561 1563 1564 1565 1565 1566 1566 1567 1568 1568 1569 1569 1569 1568 1569 1570 1570 1570 1571 1572 1573 1574 1575 1576
1507 1507 1509 1508 1511 1510 1511 1511 1512 1514 1518 1522 1526 1531 1537 1538 1539 1540 1543 1547 1550 1553 1556 1558 1560 1563 1564 1566 1567 1567 1568 1568 1569 1569 1569 1570 1571 1570 1570 1570 1570 1571 1572 1573 1574 1574 1575 1576 1577
1506 1506 1509 1510 1510 1510 1510 1512 1511 1514 1517 1522 1525 1531 1538 1539 1540 1542 1545 1548 1551 1554 1557 1559 1561 1563 1565 1566 1568 1568 1569 1569 1570 1570 1571 1571 1571 1571 1572 1572 1572 1573 1573 1574 1575 1576 1577 1577 1578
1505 1505 1512 1511 1510 1510 1510 1511 1514 1516 1519 1523 1526 1531 1538 1539 1541 1544 1547 1549 1552 1555 1557 1560 1562 1564 1565 1567 1568 1570 1570 1570 1571 1571 1571 1572 1572 1572 1573 1573 1573 1574 1575 1575 1575 1576 1577 1577 1577
1505 1507 1508 1507 1510 1508 1510 1510 1516 1518 1519 1524 1527 1531 1535 1538 1541 1544 1547 1550 1552 1555 1558 1560 1562 1563 1565 1567 1569 1570 1571 1571 1572 1572 1572 1573 1573 1574 1574 1574 1574 1575 1575 1575 1576 1577 1577 1577 1577
1505 1507 1503 1503 1506 1506 1511 1512 1515 1520 1524 1531 1530 1535 1538 1540 1543 1545 1547 1550 1552 1555 1558 1559 1561 1563 1565 1567 1569 1570 1571 1572 1572 1572 1572 1572 1572 1573 1573 1574 1574 1575 1575 1576 1576 1576 1576 1576 1576
1503 1501 1501 1503 1504 1506 1511 1515 1517 1520 1528 1532 1534 1537 1539 1541 1543 1546 1548 1551 1553 1555 1557 1559 1561 1563 1565 1567 1569 1570 1570 1570 1570 1571 1571 1572 1572 1572 1572 1573 1573 1574 1574 1575 1575 1575 1575 1575 1575
1501 1500 1500 1503 1504 1507 1512 1518 1523 1524 1533 1534 1536 1538 1539 1541 1543 1545 1548 1550 1552 1554 1556 1558 1561 1563 1565 1567 1568 1569 1569 1569 1570 1570 1571 1571 1571 1571 1572 1572 1572 1572 1572 1572 1573 1573 1573 1572 1572
1500 1500 1502 1503 1504 1510 1513 1522 1525 1533 1535 1536 1538 1540 1541 1542 1544 1545 1547 1549 1551 1553 1555 1557 1559 1562 1564 1565 1566 1567 1568 1569 1569 1570 1570 1571 1571 1572 1572 1572 1571 1571 1571 1570 1570 1570 1569 1569 1568
1497 1500 1506 1507 1508 1513 1517 1527 1527 1539 1538 1538 1539 1540 1542 1542 1543 1544 1545 1548 1550 1552 1554 1556 1558 1560 1561 1562 1564 1566 1568 1569 1569 1570 1570 1570 1571 1571 1571 1571 1571 1570 1570 1569 1569 1568 1567 1566 1565
1498 1505 1507 1509 1510 1516 1515 1528 1538 1541 1541 1540 1539 1541 1541 1542 1543 1543 1544 1546 1548 1550 1552 1554 1555 1557 1559 1560 1561 1563 1565 1566 1567 1568 1568 1568 1569 1569 1568 1567 1567 1567 1567 1567 1566 1564 1563 1562 1561
1498 1502 1505 1509 1510 1515 1514 1535 1541 1541 1541 1542 1541 1542 1542 1542 1543 1543 1544 1546 1548 1549 1551 1553 1555 1555 1556 1558 1559 1561 1562 1563 1564 1565 1565 1565 1565 1566 1565 1565 1564 1563 1563 1562 1561 1560 1559 1557 1555
1494 1492 1500 1509 1509 1511 1512 1531 1539 1540 1542 1543 1544 1543 1544 1544 1545 1545 1545 1546 1547 1548 1550 1551 1552 1554 1556 1557 1558 1559 1560 1561 1562 1563 1563 1563 1562 1562 1562 1561 1560 1559 1558 1557 1556 1555 1553 1551 1548
1487 1499 1501 1504 1509 1510 1516 1524 1534 1539 1542 1544 1545 1546 1546 1546 1545 1546 1546 1546 1547 1548 1549 1550 1551 1552 1555 1554 1556 1557 1559 1560 1561 1561 1561 1561 1561 1560 1560 1558 1557 1555 1555 1553 1552 1550 1548 1546 1543
1482 1487 1495 1508 1510 1512 1517 1525 1530 1537 1542 1543 1546 1547 1546 1545 1546 1547 1547 1547 1548 1548 1549 1549 1551 1552 1553 1554 1555 1556 1557 1558 1559 1559 1560 1560 1560 1559 1558 1557 1556 1554 1553 1551 1549 1548 1545 1543 1539
1482 1483 1487 1507 1511 1513 1522 1530 1535 1537 1540 1541 1543 1545 1545 1545 1546 1547 1548 1549 1549 1549 1549 1550 1552 1552 1553 1555 1556 1556 1556 1558 1558 1558 1559 1559 1559 1558 1556 1555 1553 1552 1550 1549 1547 1545 1543 1541 1536
1480 1479 1488 1491 1512 1519 1521 1536 1535 1537 1539 1541 1543 1545 1546 1545 1546 1547 1548 1550 1550 1551 1551 1551 1552 1552 1553 1555 1556 1556 1556 1557 1557 1558 1559 1558 1558 1556 1555 1554 1552 1550 1549 1546 1544 1542 1540 1537 1535
1481 1479 1486 1495 1499 1506 1513 1511 1529 1528 1532 1537 1539 1540 1542 1544 1546 1547 1548 1549 1550 1551 1551 1551 1552 1553 1554 1555 1555 1556 1557 1557 1557 1557 1558 1558 1557 1555 1553 1552 1550 1549 1547 1545 1543 1541 1539 1537 1535
1474 1477 1484 1493 1498 1507 1519 1512 1505 1522 1527 1530 1531 1535 1538 1541 1543 1544 1546 1548 1549 1551 1551 1552 1552 1554 1554 1555 1556 1557 1556 1556 1556 1556 1556 1556 1555 1554 1552 1551 1549 1548 1546 1544 1542 1539 1537 1534 1533
1475 1479 1488 1496 1505 1519 1497 1504 1484 1505 1508 1515 1524 1529 1533 1537 1540 1543 1545 1546 1547 1549 1550 1552 1552 1554 1555 1556 1555 1555 1555 1556 1557 1556 1556 1556 1556 1554 1553 1551 1550 1548 1546 1544 1542 1539 1537 1534 1532
1470 1475 1505 1509 1512 1482 1480 1505 1477 1487 1493 1499 1508 1518 1526 1532 1536 1539 1541 1543 1546 1548 1550 1552 1553 1554 1555 1555 1554 1555 1556 1556 1556 1556 1556 1556 1555 1553 1551 1551 1549 1547 1544 1542 1540 1538 1536 1534 1532
1460 1461 1475 1482 1483 1477 1493 1492 1473 1477 1486 1493 1503 1513 1522 1528 1532 1536 1539 1541 1544 1547 1550 1551 1553 1554 1555 1554 1555 1556 1555 1555 1555 1555 1555 1554 1552 1550 1550 1550 1548 1546 1544 1542 1540 1538 1535 1533 1530
1461 1467 1451 1465 1476 1481 1479 1473 1477 1477 1483 1491 1497 1506 1514 1521 1526 1532 1536 1539 1543 1546 1549 1550 1552 1554 1555 1555 1556 1556 1555 1556 1555 1555 1554 1553 1552 1550 1550 1549 1548 1546 1543 1541 1539 1537 1534 1531 1528
1449 1446 1467 1468 1477 1477 1462 1461 1458 1471 1478 1486 1495 1499 1505 1513 1521 1527 1532 1536 1540 1545 1547 1549 1551 1553 1554 1555 1555 1555 1555 1556 1555 1555 1554 1552 1552 1550 1550 1548 1546 1544 1541 1539 1536 1534 1531 1528 1525
1449 1453 1453 1451 1458 1458 1456 1445 1439 1456 1462 1469 1474 1482 1491 1500 1512 1520 1526 1532 1538 1542 1545 1547 1550 1551 1552 1553 1554 1554 1554 1554 1554 1553 1552 1551 1551 1550 1549 1547 1545 1543 1541 1538 1535 1533 1530 1526 1523
1442 1441 1440 1451 1456 1450 1449 1437 1443 1438 1443 1451 1462 1470 1483 1493 1503 1513 1520 1527 1533 1538 1541 1545 1547 1548 1550 1551 1552 1552 1553 1552 1552 1551 1550 1550 1550 1550 1549 1547 1544 1542 1540 1537 1534 1530 1527 1523 1519